Weather History for Algona, IA

Change the Weather History Date:

Saturday, April 5, 2014

  Actual Average Record
Temperature  
Mean Temperature 40 °F -  
Max Temperature 53 °F 49 °F 71 °F (2005)
Min Temperature 26 °F 31 °F 19 °F (2007)
Degree Days  
Heating Degree Days 26    
Moisture  
Dew Point 31 °F    
Average Humidity 75    
Maximum Humidity 100    
Minimum Humidity 47    
Precipitation  
Precipitation 0.00 in - - ()
Sea Level Pressure  
Sea Level Pressure 30.07 in    
Wind  
Wind Speed 10 mph (South)    
Max Wind Speed 21 mph    
Max Gust Speed 26 mph    
Visibility 10 miles    
Events      
Averages and records for this station are not official NWS values.
T = Trace of Precipitation, MM = Missing Value Source: NWS Daily Summary

Daily Weather History Graph

Daily Weather History Graph

Search for Another Location

Airport:

Trip Planner

Search our weather history database for the weather conditions in past years. The results will help you decide how hot, cold, wet, or windy it might be!

Date:

Astronomy

Apr. 05, 2014 Rise Set
Actual Time 6:52 AM CDT 7:48 PM CDT
Civil Twilight 6:23 AM CDT 8:17 PM CDT
Nautical Twilight 5:48 AM CDT 8:51 PM CDT
Astronomical Twilight 5:12 AM CDT 9:27 PM CDT
Moon 10:55 AM CDT (4/5) 1:04 AM CDT (4/5)
Length of Visible Light 13h 53m
Length of Day
12h 56m
Waxing Crescent, 34% of the Moon is Illuminated
Apr 5
Waxing Crescent
Apr 7
First Quarter
Apr 15
Full
Apr 22
Last Quarter
Apr 29
New

Hourly Weather History & Observations

Time (CDT) Temp. Windchill Dew Point Humidity Pressure Visibility Wind Dir Wind Speed Gust Speed Precip Events Conditions
12:15 AM 30.2 °F 23.4 °F 28.4 °F 93% 30.11 in 10.0 mi WSW 6.9 mph - N/A   Clear
12:35 AM 30.2 °F 24.3 °F 28.4 °F 93% 30.11 in 10.0 mi WSW 5.8 mph - N/A   Clear
12:55 AM 28.4 °F 23.3 °F 28.4 °F 100% 30.12 in 10.0 mi WSW 4.6 mph - N/A   Clear
1:15 AM 28.4 °F 23.3 °F 28.4 °F 100% 30.12 in 10.0 mi SW 4.6 mph - N/A   Clear
1:35 AM 28.4 °F 24.6 °F 26.6 °F 93% 30.11 in 10.0 mi WSW 3.5 mph - N/A   Clear
1:55 AM 28.4 °F 22.2 °F 28.4 °F 100% 30.12 in 10.0 mi SW 5.8 mph - N/A   Clear
2:15 AM 28.4 °F 23.3 °F 28.4 °F 100% 30.12 in 10.0 mi WSW 4.6 mph - N/A   Clear
2:35 AM 28.4 °F 22.2 °F 28.4 °F 100% 30.12 in 10.0 mi SW 5.8 mph - N/A   Clear
2:55 AM 28.4 °F 22.2 °F 26.6 °F 93% 30.12 in 10.0 mi WSW 5.8 mph - N/A   Clear
3:15 AM 28.4 °F 22.2 °F 26.6 °F 93% 30.12 in 10.0 mi WSW 5.8 mph - N/A   Clear
3:35 AM 28.4 °F 23.3 °F 26.6 °F 93% 30.12 in 10.0 mi SW 4.6 mph - N/A   Clear
3:55 AM 28.4 °F 22.2 °F 26.6 °F 93% 30.11 in 10.0 mi SSW 5.8 mph - N/A   Clear
4:15 AM 28.4 °F 23.3 °F 26.6 °F 93% 30.11 in 10.0 mi SSW 4.6 mph - N/A   Clear
4:35 AM 26.6 °F 21.2 °F 26.6 °F 100% 30.11 in 7.0 mi South 4.6 mph - N/A   Clear
4:55 AM 26.6 °F 20.0 °F 26.6 °F 100% 30.10 in 8.0 mi South 5.8 mph - N/A   Clear
5:15 AM 26.6 °F 21.2 °F 26.6 °F 100% 30.10 in 6.0 mi SSW 4.6 mph - N/A   Clear
5:35 AM 26.6 °F 21.2 °F 26.6 °F 100% 30.10 in 9.0 mi South 4.6 mph - N/A   Clear
5:55 AM 26.6 °F 20.0 °F 24.8 °F 93% 30.10 in 9.0 mi SSW 5.8 mph - N/A   Clear
6:15 AM 26.6 °F 18.2 °F 24.8 °F 93% 30.11 in 10.0 mi SSW 8.1 mph - N/A   Clear
6:35 AM 26.6 °F 19.1 °F 24.8 °F 93% 30.11 in 10.0 mi SSW 6.9 mph - N/A   Clear
6:55 AM 26.6 °F 20.0 °F 24.8 °F 93% 30.11 in 8.0 mi South 5.8 mph - N/A   Clear
7:15 AM 26.6 °F 21.2 °F 24.8 °F 93% 30.12 in 7.0 mi South 4.6 mph - N/A   Clear
7:35 AM 26.6 °F 20.0 °F 24.8 °F 93% 30.12 in 9.0 mi South 5.8 mph - N/A   Clear
7:55 AM 28.4 °F 19.7 °F 26.6 °F 93% 30.13 in 9.0 mi SSW 9.2 mph - N/A   Clear
8:15 AM 30.2 °F 22.6 °F 28.4 °F 93% 30.14 in 9.0 mi South 8.1 mph - N/A   Clear
8:35 AM 30.2 °F 22.6 °F 28.4 °F 93% 30.14 in 9.0 mi South 8.1 mph - N/A   Clear
8:55 AM 32.0 °F 24.8 °F 30.2 °F 93% 30.14 in 10.0 mi SSW 8.1 mph - N/A   Clear
9:15 AM 33.8 °F 24.8 °F 30.2 °F 87% 30.14 in 10.0 mi SSW 12.7 mph - N/A   Clear
9:35 AM 35.6 °F 28.0 °F 32.0 °F 87% 30.14 in 10.0 mi SSW 10.4 mph - N/A   Clear
9:55 AM 35.6 °F 26.2 °F 32.0 °F 87% 30.14 in 10.0 mi SSW 15.0 mph - N/A   Clear
10:15 AM 37.4 °F 28.5 °F 32.0 °F 81% 30.14 in 10.0 mi SSW 15.0 mph - N/A   Clear
10:35 AM 39.2 °F 29.8 °F 32.0 °F 75% 30.14 in 10.0 mi SSW 18.4 mph - N/A   Clear
10:55 AM 39.2 °F 29.8 °F 32.0 °F 75% 30.14 in 10.0 mi SSW 18.4 mph - N/A   Clear
11:15 AM 41.0 °F 33.1 °F 33.8 °F 76% 30.13 in 10.0 mi SSW 15.0 mph - N/A   Clear
11:35 AM 41.0 °F 32.8 °F 33.8 °F 76% 30.13 in 10.0 mi SSW 16.1 mph 21.9 mph N/A   Clear
11:55 AM 42.8 °F 34.3 °F 33.8 °F 70% 30.13 in 10.0 mi SSW 19.6 mph - N/A   Partly Cloudy
12:15 PM 44.6 °F 37.2 °F 35.6 °F 71% 30.12 in 10.0 mi South 17.3 mph 24.2 mph N/A   Partly Cloudy
12:35 PM 44.6 °F 37.4 °F 35.6 °F 71% 30.12 in 10.0 mi SSW 16.1 mph 23.0 mph N/A   Partly Cloudy
12:55 PM 44.6 °F 37.8 °F 35.6 °F 71% 30.11 in 10.0 mi South 15.0 mph 21.9 mph N/A   Clear
1:15 PM 46.4 °F 39.5 °F 35.6 °F 66% 30.10 in 10.0 mi South 17.3 mph 24.2 mph N/A   Clear
1:35 PM 48.2 °F - 37.4 °F 66% 30.09 in 10.0 mi South 20.7 mph - N/A   Clear
1:55 PM 48.2 °F - 35.6 °F 62% 30.09 in 10.0 mi South 18.4 mph - N/A   Clear
2:15 PM 48.2 °F - 35.6 °F 62% 30.08 in 10.0 mi South 17.3 mph - N/A   Clear
2:35 PM 50.0 °F - 37.4 °F 62% 30.07 in 10.0 mi South 16.1 mph - N/A   Clear
2:55 PM 50.0 °F - 37.4 °F 62% 30.06 in 10.0 mi South 15.0 mph 23.0 mph N/A   Clear
3:15 PM 51.8 °F - 37.4 °F 58% 30.04 in 10.0 mi South 17.3 mph 26.5 mph N/A   Clear
3:35 PM 51.8 °F - 37.4 °F 58% 30.04 in 10.0 mi South 18.4 mph - N/A   Clear
3:55 PM 51.8 °F - 37.4 °F 58% 30.03 in 10.0 mi South 17.3 mph 25.3 mph N/A   Clear
4:15 PM 51.8 °F - 35.6 °F 54% 30.02 in 10.0 mi South 19.6 mph 25.3 mph N/A   Clear
4:35 PM 53.6 °F - 35.6 °F 51% 30.02 in 10.0 mi South 19.6 mph 25.3 mph N/A   Clear
4:55 PM 53.6 °F - 33.8 °F 47% 30.01 in 10.0 mi South 20.7 mph - N/A   Clear
5:15 PM 53.6 °F - 33.8 °F 47% 30.01 in 10.0 mi South 18.4 mph - N/A   Clear
5:35 PM 53.6 °F - 33.8 °F 47% 30.00 in 10.0 mi South 19.6 mph 25.3 mph N/A   Clear
5:55 PM 51.8 °F - 32.0 °F 47% 30.00 in 10.0 mi South 18.4 mph 24.2 mph N/A   Clear
6:15 PM 51.8 °F - 32.0 °F 47% 29.99 in 10.0 mi South 19.6 mph 26.5 mph N/A   Clear
6:35 PM 51.8 °F - 33.8 °F 50% 29.99 in 10.0 mi South 15.0 mph 21.9 mph N/A   Clear
6:55 PM 50.0 °F - 33.8 °F 54% 29.99 in 10.0 mi South 13.8 mph 21.9 mph N/A   Clear
7:15 PM 50.0 °F - 33.8 °F 54% 29.99 in 10.0 mi South 17.3 mph - N/A   Clear
7:35 PM 48.2 °F - 32.0 °F 54% 29.98 in 10.0 mi SSE 15.0 mph 21.9 mph N/A   Clear
7:55 PM 48.2 °F - 32.0 °F 54% 29.98 in 10.0 mi SSE 12.7 mph 18.4 mph N/A   Clear
8:15 PM 46.4 °F 40.1 °F 33.8 °F 62% 29.98 in 10.0 mi SSE 15.0 mph 20.7 mph N/A   Clear
8:35 PM 44.6 °F 38.1 °F 33.8 °F 66% 29.99 in 10.0 mi SSE 13.8 mph - N/A   Clear
8:55 PM 44.6 °F 38.1 °F 33.8 °F 66% 29.99 in 10.0 mi SSE 13.8 mph - N/A   Clear
9:15 PM 42.8 °F 36.2 °F 33.8 °F 70% 29.99 in 10.0 mi SSE 12.7 mph - N/A   Clear
9:35 PM 44.6 °F 38.1 °F 33.8 °F 66% 29.99 in 10.0 mi SSE 13.8 mph - N/A   Clear
9:55 PM 42.8 °F 35.4 °F 32.0 °F 66% 29.99 in 10.0 mi SSE 15.0 mph - N/A   Clear
10:15 PM 44.6 °F 37.4 °F 32.0 °F 61% 29.99 in 10.0 mi SSE 16.1 mph - N/A   Clear
10:35 PM 44.6 °F 38.1 °F 30.2 °F 57% 29.98 in 10.0 mi SSE 13.8 mph - N/A   Clear
10:55 PM 44.6 °F 37.8 °F 30.2 °F 57% 29.98 in 10.0 mi SSE 15.0 mph - N/A   Clear
11:15 PM 44.6 °F 37.2 °F 30.2 °F 57% 29.98 in 10.0 mi SSE 17.3 mph - N/A   Clear
11:35 PM 44.6 °F 36.9 °F 30.2 °F 57% 29.97 in 10.0 mi SSE 18.4 mph - N/A   Clear
11:55 PM 42.8 °F 35.4 °F 30.2 °F 61% 29.97 in 10.0 mi SSE 15.0 mph - N/A   Clear